Regional Weather Roundup
Issued by NWS

Home | Current Version | Previous Version | Graphics & Text | Print | Product List | Glossary On
Versions: 1 2 3 4 5 6 7 8 9 10 11 12 13 14 15 16 17 18 19 20 21 22 23 24 25 26 27 28 29 30 31 32 33 34 35 36 37 38 39 40 41 42 43 44 45 46 47 48 49 50
000
ASUS45 KABQ 300510
RWRNM
WEATHER ROUNDUP FOR NEW MEXICO
NATIONAL WEATHER SERVICE ALBUQUERQUE NM
1100 PM MDT MON SEP 29 2014

NOTE: "FAIR" MEANS FEW OR NO CLOUDS BELOW 12,000 FEET AGL WITH NO
       SIGNIFICANT WEATHER OR OBSTRUCTIONS TO VISION.

      THIS PRODUCT IS RELEASED AS TWO VERSIONS.  ONE VERSION NEAR
      THE TOP OF THE HOUR CONTAINING PRELIMINARY DATA FROM ALBUQUERQUE
      AND OTHER STATIONS.  A FINAL VERSION WITH ADDITIONAL DATA IS
      ISSUED ABOUT 10 MINUTES AFTER THE HOUR.

NMZ501-503-504-510>518-300600-
NORTHWEST PLATEAU/NORTHCENTRAL MOUNTAINS

CITY           SKY/WX    TMP DP  RH WIND       PRES   REMARKS
FARMINGTON     CLEAR     53  37  54 CALM      30.08R
LOS ALAMOS     CLEAR     52  27  38 NW12      30.11F
SANTA FE       CLEAR     46  34  62 NE6       30.08S
TAOS           CLEAR     45  34  65 W6        30.13S
ANGEL FIRE     FAIR      44  32  62 SW14G21   30.13S

$$
NMZ402-403-502-505>509-300600-
WESTCENTRAL MOUNTAINS/SOUTHWEST MOUNTAINS

CITY           SKY/WX    TMP DP  RH WIND       PRES   REMARKS
GALLUP         CLEAR     44  38  79 CALM      30.13R
GRANTS         CLEAR     41  34  75 N10       30.14R
SILVER CITY    CLEAR     63  50  63 N10       30.06S

$$
NMZ407-409-411-412-300600-
SOUTHERN DESERTS

CITY           SKY/WX    TMP DP  RH WIND       PRES   REMARKS
LORDSBURG      FAIR      68  41  37 MISG      29.99R
DEMING         CLEAR     69  57  65 W9        29.97S
LAS CRUCES     CLEAR     70  55  57 W10       29.98S
HOLLOMAN AFB   CLEAR     69  54  59 S6        29.93S
ALAMOGORDO     CLEAR     66  55  68 SE6       29.95S
T OR C         CLEAR     66  50  56 NW9       29.98S

$$
NMZ519>523-300600-
CENTRAL VALLEYS/CENTRAL HIGHLANDS

CITY           SKY/WX    TMP DP  RH WIND       PRES   REMARKS
ALBUQUERQUE    PTCLDY    63  32  31 N10       30.05R
DOUBLE EAGLE   CLEAR     55  33  43 N6        30.07R
MORIARTY ARPT  FAIR      47  37  66 E5        30.08S
CLINES CORNERS CLEAR     50  36  58 NW15      30.08S
BELEN          NOT AVBL
SOCORRO        FAIR      66  41  40 CALM      30.00R

$$
NMZ524>526-539-540-300600-
SOUTHCENTRAL MOUNTAINS

CITY           SKY/WX    TMP DP  RH WIND       PRES   REMARKS
RUIDOSO        NOT AVBL

$$
NMZ527>531-300600-
NORTHEAST HIGHLANDS/NORTHEAST PLAINS

CITY           SKY/WX    TMP DP  RH WIND       PRES   REMARKS
LAS VEGAS      PTCLDY    49  42  77 S9        30.05S
RATON          CLEAR     49  41  74 NE6       30.01R
CLAYTON        CLOUDY    59  56  89 SE3       29.98S

$$
NMZ532>537-300600-
EASTCENTRAL PLAINS

CITY           SKY/WX    TMP DP  RH WIND       PRES   REMARKS
TUCUMCARI      CLOUDY    64  59  83 S9        29.94F
CANNON AFB     RAIN      62  58  87 S7        29.98R
CLOVIS AIRPORT   N/A     63  55  77 SE7       29.99S

$$
NMZ028-029-538-300600-
SOUTHEAST PLAINS

CITY           SKY/WX    TMP DP  RH WIND       PRES   REMARKS
ROSWELL        PTCLDY    67  58  72 S12       29.93S
CARLSBAD       CLEAR     70  58  65 S12       29.91F
HOBBS          CLEAR     66  57  72 S10       29.97S


$$


USA.gov is the U.S. government's official web portal to all federal, state and local government web resources and services.